Terminal Aerodrome Forecast
Issued by NWS Louisville, KY

Home | Current Version | Previous Version | Text Only | Print | Product List | Glossary On
Versions: 1 2 3 4 5 6 7 8 9 10 11 12 13 14 15 16 17 18 19 20
305
FTUS43 KLMK 151120
TAFBWG
TAF
KBWG 151120Z 1512/1612 17006KT P6SM BKN100
     FM151400 20010G18KT P6SM BKN080
     FM151800 21010G20KT P6SM -SHRA SCT030 BKN040
     FM152200 21007KT 6SM -SHRA BR BKN015
     FM160000 24008KT 6SM -SHRA BR BKN008
     FM160400 27006KT 6SM BR VCSH BKN015
     FM160700 30004KT P6SM SCT015 SCT150=

USA.gov is the U.S. government's official web portal to all federal, state and local government web resources and services.